Home   Weather   42°23'N, 89°01'W   Past weeks
Flag for USA

Past Weather in 42°23'N, 89°01'W, USA — Yesterday and Last 2 Weeks

Now
91 °F

Passing clouds.


Feels Like: 107 °F
Forecast: 93 / 75 °F
Wind: 9 mph from Southwest

Location: Greater Rockford Airport

Current Time: Jul 20, 2019 at 1:07:37 pm

Latest Report: Jul 20, 2019 at 11:54 am


Visibility: 10 mi

Pressure: 29.82 "Hg

Humidity: 68%

Dew Point: 79 °F

Location of 42°23'N, 89°01'WLocation

Past Weather in 42°23'N, 89°01'W — Graph

°F

42°23'N, 89°01'W Temperature Yesterday

Maximum temperature yesterday: 93 °F (at 3:54 pm)
Minimum temperature yesterday: 80 °F (at 5:54 am)
Average temperature yesterday: 86 °F

High & Low Weather Summary for the Past Weeks

 TemperatureHumidityPressure
High93 °F (Jul 14, 2:54 pm)97% (Jul 10, 5:54 am)30.13 "Hg (Jul 10, 5:54 am)
Low60 °F (Jul 8, 5:54 am)38% (Jul 8, 1:54 pm)29.74 "Hg (Jul 18, 7:54 pm)
Average78 °F71%29.95 "Hg
* Reported Jul 5 11:54 am — Jul 20 11:54 am, 42°23'N, 89°01'W. Weather by CustomWeather, © 2019

Note: Actual official high and low records may vary slightly from our data, if they occured in-between our weather recording intervals... More about our weather records

Advertising

42°23'N, 89°01'W Weather History for the Previous 24 Hours

Scroll right to see more
 ConditionsComfort  
Time TempWeatherWind HumidityBarometerVisibility
11:54 am
Sat, Jul 20
91 °FPassing clouds.9 mph68%29.82 "Hg10 mi
10:54 am89 °FPassing clouds.14 mph70%29.82 "Hg10 mi
9:54 am88 °FPassing clouds.12 mph70%29.82 "Hg10 mi
8:54 am85 °FPassing clouds.13 mph77%29.81 "Hg10 mi
7:54 am83 °FPassing clouds.10 mph82%29.82 "Hg10 mi
6:54 am80 °FFog.9 mph90%29.85 "Hg10 mi
5:54 am80 °FFog.10 mph90%29.86 "Hg5 mi
4:54 am80 °FPartly cloudy.6 mph90%29.85 "Hg10 mi
3:54 am81 °FPassing clouds.5 mph88%29.84 "Hg10 mi
2:54 am81 °FPassing clouds.6 mph88%29.84 "Hg10 mi
1:54 am81 °FPassing clouds.10 mph91%29.84 "Hg10 mi
12:54 am82 °FPassing clouds.7 mph88%29.83 "Hg10 mi
11:54 pm
Fri, Jul 19
84 °FPassing clouds.10 mph83%29.83 "Hg10 mi
10:54 pm84 °FPassing clouds.10 mph85%29.81 "Hg10 mi
9:54 pm85 °FPassing clouds.9 mph86%29.80 "Hg10 mi
8:54 pm87 °FPassing clouds.10 mph80%29.78 "Hg10 mi
7:54 pm89 °FPassing clouds.13 mph72%29.75 "Hg10 mi
6:54 pm91 °FSunny.13 mph70%29.74 "Hg10 mi
5:54 pm93 °FPassing clouds.12 mph64%29.76 "Hg10 mi
4:54 pm93 °FPartly sunny.10 mph66%29.78 "Hg10 mi
3:54 pm93 °FScattered clouds.9 mph64%29.78 "Hg10 mi
2:54 pm92 °FPartly sunny.9 mph64%29.80 "Hg10 mi
1:54 pm91 °FPartly sunny.8 mph66%29.81 "Hg10 mi
Weather by CustomWeather, © 2019

See weather overview